Weather in Syo-Yakha

Russia / Yamalo-Nenets Autonomous Okrug     70°10′04″N   72°30′39″E
temp.,
°C
wind,
m/s
gust,
m/s
humid.,
%
clouds,
%
prec.,
mm/h
press.,
hPa
HPBL,
m
27 february, sat
sat2723:00−18sw3396100 0.2 102079
02:00−19ssw2296100 0.1 102043
05:00−20ssw3393100 0.1 102140
08:00−20s3597100 0.0 1021122
11:00−21s4797100 0.1 1021149
14:00−21s5797100 0.0 1022237
17:00−21s6897100 0.1 1021245
20:00−21s6997100 0.0 1020247
28 february, sun
sun2823:00−22s61198100 0.0 1020244
02:00−23s61198100 0.0 1019237
05:00−23s71298100 0.0 1019261
08:00−23s81297100 0.0 1018310
11:00−23s81395100 0.0 1018357
14:00−22s81493100 0.0 1018432
17:00−22s81292100 0.0 1018389
20:00−23s71292100 0.0 1017390
1 march, mon
mon123:00−24s71291100 0.0 1016352
02:00−24s71193100 0.0 1015301
05:00−24s71193100 0.0 1014269
08:00−24s71093100 0.0 1013293
11:00−24s71095100 0.1 1011288
14:00−23s71093100 0.1 1010344
17:00−23s71293100 0.1 1009338
20:00−22s81393100 0.0 1007365
2 march, tue
tue223:00−22s91494100 0.0 1005357
02:00−21s101593100 0.0 1004398
05:00−20s101592100 0.0 1003497
08:00−19s101692100 0.0 1002547
11:00−18s101592100 0.1 1002696
14:00−18s101595100 0.8 1002764
17:00−17s91493100 1.2 1002634
20:00−17s91491100 0.2 1002625
3 march, wed
wed323:00−16s91493100 0.4 1003617
02:00−16s101494100 0.6 1003560
05:00−17s101494100 1.2 1003535
08:00−18s101495100 0.5 1003534
11:00−18s101594100 1.0 1003559
14:00−17s101593100 0.4 1004613
17:00−17s101493100 0.7 1004626
20:00−17s101493100 0.4 1004600